Latest Weather Observations for Ferny Creek

IDV60901

Issued at 3:55 pm EDT Friday 31 October 2014 (issued every 10 minutes, with the page automatically refreshed every 10 minutes)

About weather observations | Map of Melbourne area stations | Latest observations for Melbourne area | Other Formats
Station Details ID: 086266 Name: FERNY CREEK Lat: -37.87 Lon: 145.35 Height: 512.9 m
Data from the previous 72 hours. | See also: Recent months at Ferny Creek
Date/Time
EDT
Tmp

°C
App
Tmp
°C
Dew
Point
°C
Rel
Hum
%
Delta-T

°C
Wind Press
QNH
hPa
Press
MSL
hPa
Rain
since
9 am
mm
Dir
 
Spd
km/h
Gust
km/h
Spd
kts
Gust
kts
31/03:30pm 25.9 23.0 4.9 26 10.9 N 9 20 5 11 1004.8 1004.5 0.0
31/03:00pm 25.4 22.6 5.1 27 10.6 N 9 19 5 10 1005.2 1004.9 0.0
31/02:30pm 24.1 21.4 5.5 30 9.7 N 9 22 5 12 1005.7 1005.4 0.0
31/02:00pm 23.6 21.4 7.7 36 8.6 N 9 20 5 11 1006.3 1006.1 0.0
31/01:30pm 22.7 20.6 8.4 40 7.8 N 9 20 5 11 1006.8 1006.5 0.0
31/01:00pm 21.9 19.4 6.6 37 8.0 N 9 20 5 11 1007.5 1007.2 0.0
31/12:30pm 20.9 18.4 6.4 39 7.5 N 9 26 5 14 1007.9 1007.7 0.0
31/12:00pm 20.4 17.8 6.0 39 7.4 N 9 22 5 12 1008.7 1008.4 0.0
31/11:30am 20.4 17.9 6.4 40 7.2 N 9 22 5 12 1009.1 1008.8 0.0
31/11:00am 18.8 16.2 6.0 43 6.5 N 9 26 5 14 1009.6 1009.4 0.0
31/10:30am 17.9 15.8 6.7 48 5.7 N 7 17 4 9 1010.0 1009.8 0.0
31/10:00am 19.2 17.3 6.7 44 6.4 N 6 9 3 5 1010.2 1010.0 0.0
31/09:30am 18.6 16.7 6.8 46 6.1 N 6 11 3 6 1010.3 1010.1 0.0
31/09:00am 17.1 15.8 7.5 53 5.0 N 4 7 2 4 1010.4 1010.2 0.0
31/08:30am 16.5 14.9 6.3 51 5.1 NNW 4 7 2 4 1010.7 1010.4 0.0
31/08:00am 17.0 16.0 7.4 53 4.9 NNW 2 7 1 4 1010.8 1010.5 0.0
31/07:30am 16.1 14.8 7.6 57 4.4 NW 4 9 2 5 1010.9 1010.6 0.0
31/07:00am 14.9 13.1 7.0 59 4.0 NW 6 9 3 5 1010.9 1010.6 0.0
31/06:30am 13.6 12.0 6.5 62 3.5 NW 4 6 2 3 1010.9 1010.6 0.0
31/06:00am 13.3 12.1 6.6 64 3.3 NW 2 6 1 3 1010.7 1010.4 0.0
31/05:30am 11.9 11.4 7.8 76 2.1 CALM 0 0 0 0 1010.4 1010.2 0.0
31/05:00am 8.6 6.7 6.9 89 0.8 WNW 6 11 3 6 1010.9 1010.6 0.0
31/04:30am 8.9 7.9 7.4 90 0.7 N 2 4 1 2 1010.9 1010.6 0.0
31/04:00am 8.7 7.7 7.3 91 0.7 ENE 2 4 1 2 1011.0 1010.7 0.0
31/03:30am 8.5 7.7 6.6 88 0.9 CALM 0 0 0 0 1011.4 1011.2 0.0
31/03:00am 8.1 7.2 6.2 88 0.9 CALM 0 0 0 0 1011.7 1011.5 0.0
31/02:30am 8.3 7.1 6.3 87 0.9 ENE 2 4 1 2 1012.0 1011.8 0.0
31/02:00am 8.1 6.5 6.4 89 0.8 E 4 4 2 2 1012.3 1012.1 0.0
31/01:30am 8.3 7.1 6.4 88 0.9 SE 2 4 1 2 1013.5 1013.3 0.0
31/01:00am 8.4 7.2 6.5 88 0.9 E 2 7 1 4 1013.7 1013.5 0.0
31/12:30am 8.6 7.1 6.9 89 0.8 ESE 4 6 2 3 1013.9 1013.7 0.0
31/12:00am 8.5 7.4 7.0 90 0.7 ESE 2 4 1 2 1014.0 1013.8 0.0
 
Date/Time
EDT
Tmp

°C
App
Tmp
°C
Dew
Point
°C
Rel
Hum
%
Delta-T

°C
Wind Press
QNH
hPa
Press
MSL
hPa
Rain
since
9 am
mm
Dir
 
Spd
km/h
Gust
km/h
Spd
kts
Gust
kts
30/11:30pm 8.7 7.2 7.0 89 0.8 ESE 4 7 2 4 1014.1 1013.9 0.0
30/11:00pm 8.9 7.5 7.2 89 0.8 ESE 4 7 2 4 1014.1 1013.9 0.0
30/10:30pm 9.3 8.0 7.7 90 0.8 SE 4 11 2 6 1014.2 1014.0 0.0
30/10:00pm 9.2 7.9 7.6 90 0.8 ESE 4 6 2 3 1014.1 1013.9 0.0
30/09:30pm 9.7 8.5 8.0 89 0.8 ESE 4 7 2 4 1014.0 1013.8 0.0
30/09:00pm 10.3 9.1 7.9 85 1.2 ESE 4 7 2 4 1013.9 1013.7 0.0
30/08:30pm 11.2 10.1 8.4 83 1.4 SE 4 9 2 5 1013.8 1013.6 0.0
30/08:00pm 12.3 11.7 8.8 79 1.8 SE 2 6 1 3 1013.7 1013.5 0.0
30/07:30pm 13.4 12.3 8.3 71 2.6 E 4 6 2 3 1013.5 1013.3 0.0
30/07:00pm 14.4 13.4 7.5 63 3.5 SSW 2 7 1 4 1013.7 1013.5 0.0
30/06:30pm 15.2 13.7 6.7 57 4.3 SSE 4 6 2 3 1013.7 1013.5 0.0
30/06:00pm 15.4 13.9 6.9 57 4.3 WSW 4 7 2 4 1013.7 1013.5 0.0
30/05:30pm 15.7 13.8 6.7 55 4.5 S 6 11 3 6 1013.7 1013.5 0.0
30/05:00pm 16.9 15.1 7.3 53 4.9 WSW 6 13 3 7 1013.6 1013.4 0.0
30/04:30pm 16.8 14.6 7.7 55 4.7 SW 9 15 5 8 1013.5 1013.3 0.0
30/04:00pm 17.6 16.1 9.2 58 4.5 SW 7 15 4 8 1013.5 1013.3 0.0
30/03:30pm 17.8 16.3 9.2 57 4.6 SSW 7 13 4 7 1013.5 1013.3 0.0
30/03:00pm 16.9 15.6 9.1 60 4.1 SE 6 13 3 7 1013.7 1013.5 0.0
30/02:30pm 18.0 17.5 10.9 63 3.9 SE 4 7 2 4 1014.0 1013.8 0.0
30/02:00pm 17.0 15.9 9.9 63 3.8 WNW 6 9 3 5 1014.3 1014.1 0.0
30/01:30pm 16.3 14.8 9.0 62 3.9 NW 7 15 4 8 1014.5 1014.4 0.0
30/01:00pm 16.1 15.1 10.4 69 3.1 WNW 6 11 3 6 1014.8 1014.6 0.0
30/12:30pm 15.1 13.7 9.0 67 3.2 WSW 6 11 3 6 1015.0 1014.8 0.0
30/12:00pm 14.6 13.2 8.8 68 3.0 NW 6 13 3 7 1015.1 1014.9 0.0
30/11:30am 13.0 11.5 8.3 73 2.4 WNW 6 13 3 7 1015.4 1015.2 0.0
30/11:00am 12.3 11.2 8.4 77 2.0 WNW 4 7 2 4 1015.7 1015.5 0.0
30/10:30am 11.2 10.1 8.4 83 1.4 W 4 6 2 3 1015.9 1015.7 0.0
30/10:00am 10.8 10.3 9.2 90 0.8 WSW 2 6 1 3 1015.9 1015.7 0.0
30/09:30am 10.3 8.8 9.1 92 0.6 NW 7 13 4 7 1015.7 1015.5 0.0
30/09:00am 10.6 9.9 8.7 88 1.0 W 2 6 1 3 1015.8 1015.6 0.0
30/08:30am 10.5 9.9 8.9 90 0.8 WNW 2 9 1 5 1015.7 1015.5 0.0
30/08:00am 10.6 9.7 9.2 91 0.7 W 4 9 2 5 1015.5 1015.3 0.0
30/07:30am 10.1 9.9 8.9 92 0.6 CALM 0 0 0 0 1015.1 1014.9 0.0
30/07:00am 9.7 9.4 8.6 93 0.6 CALM 0 4 0 2 1014.8 1014.6 0.0
30/06:30am 9.6 8.9 8.5 93 0.6 WNW 2 4 1 2 1014.4 1014.3 0.0
30/06:00am 9.6 9.2 8.4 92 0.6 CALM 0 4 0 2 1014.5 1014.4 0.0
30/05:30am 9.7 9.4 8.5 92 0.6 CALM 0 0 0 0 1014.6 1014.5 0.0
30/05:00am 9.9 9.2 8.7 92 0.6 W 2 4 1 2 1014.6 1014.5 0.0
30/04:30am 10.0 9.7 8.8 92 0.6 CALM 0 2 0 1 1014.2 1014.0 0.0
30/04:00am 10.1 9.9 8.9 92 0.6 CALM 0 2 0 1 1014.4 1014.3 0.0
30/03:30am 10.2 9.9 8.8 91 0.7 CALM 0 2 0 1 1014.8 1014.6 0.0
30/03:00am 10.1 9.9 8.9 92 0.6 CALM 0 0 0 0 1014.8 1014.6 0.0
30/02:30am 9.9 9.6 8.7 92 0.6 CALM 0 0 0 0 1015.1 1014.9 0.0
30/02:00am 9.7 9.3 8.3 91 0.7 CALM 0 0 0 0 1015.5 1015.3 0.0
30/01:30am 9.8 9.1 8.6 92 0.6 W 2 4 1 2 1016.0 1015.8 0.0
30/01:00am 9.3 8.9 8.1 92 0.6 CALM 0 0 0 0 1016.1 1016.0 0.0
30/12:30am 8.9 8.3 7.5 91 0.7 CALM 0 0 0 0 1016.2 1016.1 0.0
30/12:00am 8.9 8.4 7.8 93 0.5 CALM 0 0 0 0 1016.3 1016.2 0.0
 
Date/Time
EDT
Tmp

°C
App
Tmp
°C
Dew
Point
°C
Rel
Hum
%
Delta-T

°C
Wind Press
QNH
hPa
Press
MSL
hPa
Rain
since
9 am
mm
Dir
 
Spd
km/h
Gust
km/h
Spd
kts
Gust
kts
29/11:30pm 8.8 8.2 7.6 92 0.6 CALM 0 0 0 0 1016.4 1016.3 0.0
29/11:00pm 8.8 8.2 7.6 92 0.6 CALM 0 2 0 1 1016.6 1016.5 0.0
29/10:30pm 8.9 8.4 7.8 93 0.5 CALM 0 0 0 0 1016.9 1016.7 0.0
29/10:00pm 9.4 8.6 8.0 91 0.7 SE 2 4 1 2 1016.5 1016.4 0.0
29/09:30pm 9.7 8.5 8.1 90 0.8 SSE 4 9 2 5 1016.5 1016.4 0.0
29/09:00pm 10.4 9.3 8.3 87 1.1 SSE 4 9 2 5 1016.4 1016.3 0.0
29/08:30pm 11.2 9.6 8.2 82 1.5 SE 6 13 3 7 1016.1 1016.0 0.0
29/08:00pm 12.3 10.8 8.4 77 2.0 S 6 7 3 4 1015.8 1015.6 0.0
29/07:30pm 13.9 13.1 8.3 69 2.9 SSW 2 6 1 3 1015.5 1015.3 0.0
29/07:00pm 14.7 13.7 8.9 68 3.0 WSW 4 6 2 3 1015.5 1015.3 0.0
29/06:30pm 15.4 14.5 7.7 60 3.9 S 2 6 1 3 1015.4 1015.2 0.0
29/06:00pm 16.1 14.5 8.1 59 4.1 SW 6 13 3 7 1015.4 1015.2 0.0
29/05:30pm 17.3 16.2 8.4 56 4.7 WNW 4 13 2 7 1015.3 1015.1 0.0
29/05:00pm 18.0 16.5 8.6 54 5.0 N 6 15 3 8 1015.2 1015.0 0.0
29/04:30pm 17.1 15.6 8.3 56 4.6 N 6 17 3 9 1015.4 1015.2 0.0
29/04:00pm 17.4 15.9 8.3 55 4.8 NNW 6 15 3 8 1015.6 1015.4 0.0
29/03:30pm 16.8 14.5 7.4 54 4.8 WNW 9 19 5 10 1015.9 1015.7 0.0
29/03:00pm 16.2 14.4 7.9 58 4.3 NW 7 15 4 8 1016.3 1016.2 0.0
29/02:30pm 15.6 13.6 7.1 57 4.3 NW 7 13 4 7 1016.7 1016.6 0.0
29/02:00pm 14.9 13.3 8.2 64 3.5 NNW 6 19 3 10 1017.1 1016.9 0.0
29/01:30pm 14.1 12.3 7.9 66 3.2 NNW 7 20 4 11 1017.3 1017.1 0.0
29/01:00pm 13.4 11.8 7.8 69 2.8 N 6 15 3 8 1017.5 1017.3 0.0
29/12:30pm 12.4 9.6 7.1 70 2.6 NW 11 20 6 11 1017.9 1017.8 0.0
29/12:00pm 12.1 10.0 6.6 69 2.7 WNW 7 17 4 9 1018.1 1018.0 0.0
29/11:30am 11.1 8.9 6.0 71 2.4 NW 7 17 4 9 1018.4 1018.3 0.0
29/11:00am 10.8 9.4 7.3 79 1.7 NNW 4 13 2 7 1018.6 1018.5 0.0
29/10:30am 9.7 8.3 7.3 85 1.2 NNW 4 11 2 6 1018.7 1018.6 0.0
29/10:00am 9.1 7.3 7.1 87 1.0 WNW 6 9 3 5 1018.7 1018.6 0.0
29/09:30am 8.8 7.4 7.1 89 0.8 W 4 7 2 4 1018.9 1018.7 0.0
29/09:00am 8.6 7.1 6.7 88 0.9 NW 4 9 2 5 1018.6 1018.5 2.8
29/08:30am 8.5 7.0 6.8 89 0.8 NW 4 11 2 6 1018.5 1018.4 2.8
29/08:00am 7.9 6.6 6.2 89 0.8 NW 2 4 1 2 1018.3 1018.2 2.8
29/07:30am 7.4 5.5 6.8 96 0.3 NW 6 9 3 5 1018.3 1018.2 2.8
29/07:00am 7.5 6.4 6.9 96 0.3 WNW 2 4 1 2 1018.0 1017.9 2.6
29/06:30am 7.3 5.8 6.6 95 0.3 NW 4 7 2 4 1017.6 1017.4 2.6
29/06:00am 7.2 5.9 6.1 93 0.5 WNW 2 6 1 3 1017.3 1017.1 2.6
29/05:30am 7.5 6.3 6.6 94 0.4 W 2 6 1 3 1017.0 1016.8 2.6
29/05:00am 7.5 6.3 6.4 93 0.5 WNW 2 4 1 2 1016.9 1016.7 2.6
29/04:30am 8.0 6.9 6.8 92 0.6 WNW 2 6 1 3 1016.7 1016.6 2.6
29/04:00am 8.0 6.8 6.5 90 0.7 WSW 2 6 1 3 1016.6 1016.5 2.6
29/03:30am 8.1 6.8 6.1 87 0.9 W 2 4 1 2 1016.4 1016.3 2.6
29/03:00am 8.2 6.9 6.0 86 1.0 W 2 6 1 3 1016.5 1016.4 2.6
29/02:30am 8.2 6.9 5.8 85 1.1 W 2 7 1 4 1016.5 1016.4 2.6
29/02:00am 8.3 6.6 5.8 84 1.2 W 4 7 2 4 1016.5 1016.4 2.6
29/01:30am 8.2 6.4 5.3 82 1.3 W 4 7 2 4 1016.9 1016.7 2.6
29/01:00am 8.2 6.7 5.0 80 1.5 W 2 4 1 2 1017.1 1016.9 2.6
29/12:30am 8.2 6.2 4.6 78 1.6 W 4 9 2 5 1017.3 1017.1 2.6
29/12:00am 7.6 5.5 4.0 78 1.6 W 4 7 2 4 1017.3 1017.1 2.6
 
Date/Time
EDT
Tmp

°C
App
Tmp
°C
Dew
Point
°C
Rel
Hum
%
Delta-T

°C
Wind Press
QNH
hPa
Press
MSL
hPa
Rain
since
9 am
mm
Dir
 
Spd
km/h
Gust
km/h
Spd
kts
Gust
kts
28/11:30pm 7.5 5.4 3.9 78 1.6 W 4 7 2 4 1017.2 1017.0 2.6
28/11:00pm 7.8 5.4 4.2 78 1.6 W 6 22 3 12 1017.2 1017.0 2.6
28/10:30pm 8.4 6.3 5.7 83 1.3 W 6 11 3 6 1017.0 1016.8 2.6
28/10:00pm 9.2 7.2 6.3 82 1.4 WSW 6 22 3 12 1016.9 1016.7 2.6
28/09:30pm 9.6 7.9 5.8 77 1.8 W 4 9 2 5 1016.7 1016.6 2.6
28/09:00pm 10.0 7.7 5.8 75 2.0 W 7 17 4 9 1016.3 1016.2 2.6
28/08:30pm 9.6 7.9 7.4 86 1.1 W 6 15 3 8 1015.9 1015.7 2.6
28/08:00pm 9.7 7.8 7.5 86 1.1 WSW 7 15 4 8 1015.6 1015.4 2.6
28/07:30pm 9.8 7.9 7.6 86 1.1 WSW 7 15 4 8 1015.2 1015.0 2.6
28/07:00pm 10.3 8.4 7.7 84 1.3 WSW 7 13 4 7 1014.8 1014.6 2.6
28/06:30pm 11.1 8.8 7.4 78 1.8 WSW 9 22 5 12 1014.3 1014.1 2.6
28/06:00pm 12.0 9.9 6.5 69 2.7 WSW 7 22 4 12 1013.9 1013.7 2.6
28/05:30pm 12.8 10.0 5.2 60 3.6 W 9 30 5 16 1013.6 1013.4 2.6
28/05:00pm 13.6 10.4 6.9 64 3.3 W 13 33 7 18 1013.4 1013.2 2.6
28/04:30pm 12.7 9.8 6.7 67 3.0 W 11 26 6 14 1013.4 1013.2 2.6
28/04:00pm 13.1 11.3 7.1 67 3.0 WSW 6 13 3 7 1013.3 1013.1 2.6

Latest Capital City Observations: Canberra | Sydney | Melbourne | Brisbane | Adelaide | Perth | Hobart | Darwin

Other Formats:

Comma delimited format used in spreadsheet applications
http://www.bom.gov.au/fwo/IDV60901/IDV60901.94872.axf

JavaScript Object Notation format (JSON) in row-major order
http://www.bom.gov.au/fwo/IDV60901/IDV60901.94872.json